{"data":{"norad_id":66182,"epoch":"2026-09-20T22:03:12.152160Z","epoch_age_seconds":64199,"freshness":"FRESH","line1":"1 66182U 25243F   26263.91889065  .00028706  00000+0  85714-3 0  9994","line2":"2 66182  53.1568  55.6395 0000450  58.4371 301.6675 15.34412152 50587","mean_motion":15.34412152,"eccentricity":4.5e-5,"inclination_deg":53.1568,"raan_deg":55.6395,"arg_perigee_deg":58.4371,"mean_anomaly_deg":301.6675,"bstar":0.00085714,"rev_number":5058,"period_min":93.847014840378,"perigee_km":462.35928595506,"apogee_km":462.97495832605,"semimajor_km":6840.8041221406,"source":"CELESTRAK","updated_at":"2026-09-21T09:00:35.834269Z"}}